DMSP 5D-2 F13 DEB, 42327

Orbit data source: Space-Track

DMSP 5D-2 F13 DEB, 42327 is space debris in SSO originally from a launch on Fri, 24 Mar 1995 UTC launched from the Air Force Western Test Range (AFWTR). Debris objects in space refer to the collection of defunct objects orbiting the Earth. Examples of debris include non-operational satellites, rocket bodies, and fragments generated from explosions, collisions, or faulty payload assembly.

Loading next visibility...
Identifier
42327, 1995-015JV
Orbit
SSO
Country
Flag of USUS
Related business
Manufacturer
Unknown
Mission
Spacecraft
Bus & Motor
Unknown
Mass
Unknown
Launch date (UTC)
1995-03-24 (31 years ago)
Launch vehicle
Unknown
Launch site
Air Force Western Test Range (AFWTR)
Object type
Payload
Rocket body
Debris
Shape & HBR
Unknown shape, 0.1 m
Radar Cross Section
Small (<0.1 m²)

Expand to show TLE details & history
Last TLE update: 15 hours ago

TLE from 15 hours ago
0 DMSP 5D-2 F13 DEB
1 42327U 95015JV  25288.55123970  .00005934  00000-0  19758-2 0  9998
2 42327  98.6915 320.4596 0004451  32.3454 327.8004 14.37988634518519
Epoch: 2025-10-15T13:13Z
TLE epoch observation values (Epoch: 2025-10-15T13:13:47.110Z)
Latitude
-0.00006°
Longitude
97.68963°
Altitude
765.401 km
Speed
7.473 km/s
True Right ascension
21h 21m 50s
True Declination
0° 00' 00"
Sunlit
Object was in full shadow at epoch
Visualization orbit readout
Latitude
Unknown
Longitude
Unknown
Altitude
Unknown
Speed
Unknown
Apparent Right ascension
Unknown
Apparent Declination
Unknown
Sunlit
N/A
Visualization observer readout
Local Sidereal Time
23:20:48
Azimuth
Unknown
Elevation
Unknown
Doppler factor
Unknown
Orbital elements
Apogee altitude
765.464 km
Perigee altitude
759.107 km
Semi-major axis
7,140.422 km
Eccentricity
0.00045
Inclination
98.6915°
RAAN
320.4596°
Arg. of periapsis
32.3454°
True anomaly
327.77321°
Mean anomaly
327.8004°
Eccentric anomaly
327.78681°
Mean motion
3.59714 °/min
Orbital period
100.08 mins
BSTAR
0.0019758

Documentation

Showing up to 5 results
|